This is the latest recevied weather packets stored in our database for station/object 9W2CHF-3. If no packets are shown the sender has not sent any weather packets the latest 10 day(s).
| Time | Temp. | Humidity | Pressure | Rain* | Wind** | Luminosity | Snow |
|---|---|---|---|---|---|---|---|
| 1777746418 | 29.44° C | 100% | 1009.4 hPa | - | - | - | - |
| 1777745218 | 28.89° C | 100% | 1009.7 hPa | - | - | - | - |
| 1777744018 | 28.89° C | 100% | 1009.9 hPa | - | - | - | - |
| 1777742818 | 30° C | 100% | 1010.2 hPa | - | - | - | - |
| 1777741617 | 28.89° C | 100% | 1010.3 hPa | - | - | - | - |
| 1777740417 | 29.44° C | 100% | 1010.5 hPa | - | - | - | - |
| 1777739217 | 29.44° C | 100% | 1010.9 hPa | - | - | - | - |
| 1777738016 | 30° C | 100% | 1010.8 hPa | - | - | - | - |
| 1777736816 | 30° C | 100% | 1011 hPa | - | - | - | - |
| 1777735616 | 30° C | 100% | 1011 hPa | - | - | - | - |
| 1777734416 | 30.56° C | 100% | 1010.9 hPa | - | - | - | - |
| 1777733216 | 30.56° C | 100% | 1010.9 hPa | - | - | - | - |
| 1777732016 | 30° C | 100% | 1010.7 hPa | - | - | - | - |
| 1777730816 | 30.56° C | 100% | 1010.4 hPa | - | - | - | - |
| 1777729616 | 31.67° C | 82% | 1010.2 hPa | - | - | - | - |
| 1777728416 | 31.67° C | 84% | 1009.9 hPa | - | - | - | - |
| 1777727216 | 31.67° C | 79% | 1009.5 hPa | - | - | - | - |
| 1777726015 | 32.22° C | 77% | 1009.1 hPa | - | - | - | - |
| 1777724815 | 32.22° C | 77% | 1008.8 hPa | - | - | - | - |
| 1777723615 | 32.78° C | 73% | 1008.4 hPa | - | - | - | - |
| 1777722415 | 33.33° C | 73% | 1008.2 hPa | - | - | - | - |
| 1777721215 | 32.78° C | 72% | 1007.9 hPa | - | - | - | - |
| 1777720014 | 33.33° C | 71% | 1007.5 hPa | - | - | - | - |
| 1777718814 | 33.89° C | 67% | 1007.2 hPa | - | - | - | - |
| 1777717614 | 35° C | 63% | 1007.2 hPa | - | - | - | - |
* Rain since midnight (hover to see other rain measurements)
** Current wind speed in m/s (hover to see current wind gust speed)